Time,TemperatureF,DewpointF,PressureIn,WindDirection,WindDirectionDegrees,WindSpeedMPH,WindSpeedGustMPH,Humidity,HourlyPrecipIn,Conditions,Clouds,dailyrainin,SoftwareType,DateUTC
2013-04-21 00:01:00,58.0,31.0,30.01,North,349,15.0,26.0,35,0.00,,,0.00,,2013-04-21 07:01:00,
2013-04-21 00:11:00,58.0,31.0,30.02,North,9,14.0,21.0,36,0.00,,,0.00,,2013-04-21 07:11:00,
2013-04-21 00:21:00,58.0,31.0,30.02,North,9,14.0,21.0,36,0.00,,,0.00,,2013-04-21 07:21:00,
2013-04-21 00:31:00,58.0,31.0,30.02,NNW,344,15.0,25.0,36,0.00,,,0.00,,2013-04-21 07:31:00,
2013-04-21 00:41:00,58.0,31.0,30.02,NNW,344,15.0,25.0,36,0.00,,,0.00,,2013-04-21 07:41:00,
2013-04-21 00:52:00,58.0,30.0,30.01,North,349,14.0,21.0,34,0.00,,,0.00,,2013-04-21 07:52:00,
2013-04-21 01:01:00,58.0,30.0,30.01,North,10,13.0,21.0,34,0.00,,,0.00,,2013-04-21 08:01:00,
2013-04-21 01:11:00,58.0,30.0,30.01,North,355,16.0,23.0,34,0.00,,,0.00,,2013-04-21 08:11:00,
2013-04-21 01:21:00,58.0,30.0,30.01,North,355,16.0,23.0,34,0.00,,,0.00,,2013-04-21 08:21:00,
2013-04-21 01:31:00,58.0,33.0,30.01,WNW,290,16.0,23.0,38,0.00,,,0.00,,2013-04-21 08:31:00,
2013-04-21 01:41:00,58.0,33.0,30.01,WNW,290,16.0,23.0,38,0.00,,,0.00,,2013-04-21 08:41:00,
2013-04-21 01:52:00,58.0,31.0,30.00,NNE,25,14.0,23.0,35,0.00,,,0.00,,2013-04-21 08:52:00,
2013-04-21 02:01:00,59.0,24.0,29.99,NNE,26,11.0,18.0,26,0.00,,,0.00,,2013-04-21 09:01:00,
2013-04-21 02:11:00,58.0,28.0,29.99,NNE,32,13.0,21.0,32,0.00,,,0.00,,2013-04-21 09:11:00,
2013-04-21 02:21:00,58.0,28.0,29.99,NNE,32,13.0,21.0,32,0.00,,,0.00,,2013-04-21 09:21:00,
2013-04-21 02:32:00,58.0,25.0,29.99,North,5,10.0,17.0,28,0.00,,,0.00,,2013-04-21 09:32:00,
2013-04-21 02:42:00,58.0,25.0,29.99,North,5,10.0,17.0,28,0.00,,,0.00,,2013-04-21 09:42:00,
2013-04-21 02:53:00,58.0,22.0,29.98,North,349,9.0,14.0,25,0.00,,,0.00,,2013-04-21 09:53:00,
2013-04-21 03:02:00,59.0,19.0,29.98,NNW,346,9.0,16.0,21,0.00,,,0.00,,2013-04-21 10:02:00,
2013-04-21 03:12:00,58.0,26.0,29.98,North,355,10.0,15.0,29,0.00,,,0.00,,2013-04-21 10:12:00,
2013-04-21 03:22:00,58.0,26.0,29.98,North,355,10.0,15.0,29,0.00,,,0.00,,2013-04-21 10:22:00,
2013-04-21 03:32:00,59.0,19.0,29.97,NNW,340,8.0,15.0,21,0.00,,,0.00,,2013-04-21 10:32:00,
2013-04-21 03:42:00,59.0,19.0,29.97,NNW,340,8.0,15.0,21,0.00,,,0.00,,2013-04-21 10:42:00,
2013-04-21 03:52:00,60.0,15.0,29.97,North,360,10.0,17.0,17,0.00,,,0.00,,2013-04-21 10:52:00,
2013-04-21 04:02:00,61.0,14.0,29.97,North,350,10.0,16.0,16,0.00,,,0.00,,2013-04-21 11:02:00,
2013-04-21 04:11:00,61.0,14.0,29.97,North,350,10.0,16.0,16,0.00,,,0.00,,2013-04-21 11:11:00,
2013-04-21 04:21:00,60.0,14.0,29.97,NNW,346,7.0,12.0,16,0.00,,,0.00,,2013-04-21 11:21:00,
2013-04-21 04:33:00,60.0,15.0,29.98,North,360,5.0,10.0,17,0.00,,,0.00,,2013-04-21 11:33:00,
2013-04-21 04:42:00,58.0,17.0,29.98,NNW,348,5.0,9.0,20,0.00,,,0.00,,2013-04-21 11:42:00,
2013-04-21 04:52:00,58.0,17.0,29.98,NNW,348,5.0,9.0,20,0.00,,,0.00,,2013-04-21 11:52:00,
2013-04-21 05:02:00,58.0,17.0,29.98,NNW,329,3.0,7.0,20,0.00,,,0.00,,2013-04-21 12:02:00,
2013-04-21 05:12:00,58.0,16.0,29.98,NNW,348,1.0,5.0,19,0.00,,,0.00,,2013-04-21 12:12:00,
2013-04-21 05:22:00,58.0,16.0,29.98,NNW,348,1.0,5.0,19,0.00,,,0.00,,2013-04-21 12:22:00,
2013-04-21 05:31:00,57.0,16.0,29.98,West,263,1.0,3.0,20,0.00,,,0.00,,2013-04-21 12:31:00,
2013-04-21 05:42:00,57.0,16.0,29.98,West,263,1.0,3.0,20,0.00,,,0.00,,2013-04-21 12:42:00,
2013-04-21 05:52:00,57.0,16.0,29.98,NNE,26,0.0,4.0,20,0.00,,,0.00,,2013-04-21 12:52:00,
2013-04-21 06:01:00,56.0,18.0,29.98,NNE,26,1.0,4.0,22,0.00,,,0.00,,2013-04-21 13:01:00,
2013-04-21 06:11:00,56.0,18.0,29.98,North,355,1.0,4.0,22,0.00,,,0.00,,2013-04-21 13:11:00,
2013-04-21 06:21:00,56.0,18.0,29.98,North,355,1.0,4.0,22,0.00,,,0.00,,2013-04-21 13:21:00,
2013-04-21 06:32:00,58.0,18.0,29.98,North,10,1.0,6.0,21,0.00,,,0.00,,2013-04-21 13:32:00,
2013-04-21 06:42:00,58.0,18.0,29.98,North,10,1.0,6.0,21,0.00,,,0.00,,2013-04-21 13:42:00,
2013-04-21 06:52:00,59.0,19.0,29.99,North,360,4.0,8.0,21,0.00,,,0.00,,2013-04-21 13:52:00,
2013-04-21 07:01:00,60.0,18.0,30.00,North,355,0.0,3.0,19,0.00,,,0.00,,2013-04-21 14:01:00,
2013-04-21 07:11:00,60.0,18.0,30.00,North,355,0.0,3.0,19,0.00,,,0.00,,2013-04-21 14:11:00,
2013-04-21 07:21:00,59.0,18.0,30.00,NNE,22,2.0,5.0,20,0.00,,,0.00,,2013-04-21 14:21:00,
2013-04-21 07:31:00,59.0,20.0,30.01,NNE,28,2.0,9.0,22,0.00,,,0.00,,2013-04-21 14:31:00,
2013-04-21 07:42:00,59.0,20.0,30.01,NNE,28,2.0,9.0,22,0.00,,,0.00,,2013-04-21 14:42:00,
2013-04-21 07:52:00,60.0,20.0,30.01,ENE,74,0.0,4.0,21,0.00,,,0.00,,2013-04-21 14:52:00,
2013-04-21 08:01:00,60.0,16.0,30.01,East,80,0.0,2.0,18,0.00,,,0.00,,2013-04-21 15:01:00,
2013-04-21 08:11:00,60.0,16.0,30.01,East,80,0.0,2.0,18,0.00,,,0.00,,2013-04-21 15:11:00,
2013-04-21 08:22:00,61.0,14.0,30.02,East,88,0.0,2.0,16,0.00,,,0.00,,2013-04-21 15:22:00,
2013-04-21 08:33:00,63.0,8.0,30.02,NNE,15,0.0,4.0,11,0.00,,,0.00,,2013-04-21 15:33:00,
2013-04-21 08:53:00,67.0,4.0,30.02,NNE,27,0.0,4.0,8,0.00,,,0.00,,2013-04-21 15:53:00,
2013-04-21 09:03:00,68.0,2.0,30.02,North,355,2.0,5.0,7,0.00,,,0.00,,2013-04-21 16:03:00,
2013-04-21 09:12:00,69.0,-5.0,30.02,NNW,344,4.0,7.0,5,0.00,,,0.00,,2013-04-21 16:12:00,
2013-04-21 09:22:00,69.0,-5.0,30.02,NNW,344,4.0,7.0,5,0.00,,,0.00,,2013-04-21 16:22:00,
2013-04-21 09:32:00,71.0,1.0,30.02,WNW,302,1.0,6.0,6,0.00,,,0.00,,2013-04-21 16:32:00,
2013-04-21 09:52:00,73.0,-2.0,30.02,WNW,302,0.0,3.0,5,0.00,,,0.00,,2013-04-21 16:52:00,
2013-04-21 10:01:00,72.0,12.0,30.03,SSE,158,4.0,7.0,10,0.00,,,0.00,,2013-04-21 17:01:00,
2013-04-21 10:11:00,71.0,16.0,30.03,South,174,2.0,7.0,12,0.00,,,0.00,,2013-04-21 17:11:00,
2013-04-21 10:22:00,71.0,16.0,30.03,South,174,2.0,7.0,12,0.00,,,0.00,,2013-04-21 17:22:00,
2013-04-21 10:32:00,71.0,18.0,30.03,SSW,200,4.0,9.0,13,0.00,,,0.00,,2013-04-21 17:32:00,
2013-04-21 10:41:00,71.0,18.0,30.03,SSW,200,4.0,9.0,13,0.00,,,0.00,,2013-04-21 17:41:00,
2013-04-21 10:52:00,71.0,19.0,30.04,SE,138,5.0,7.0,14,0.00,,,0.00,,2013-04-21 17:52:00,
2013-04-21 11:02:00,72.0,22.0,30.04,SSE,159,1.0,8.0,15,0.00,,,0.00,,2013-04-21 18:02:00,
2013-04-21 11:11:00,72.0,22.0,30.04,SSE,159,1.0,8.0,15,0.00,,,0.00,,2013-04-21 18:11:00,
2013-04-21 11:21:00,73.0,23.0,30.04,South,185,2.0,7.0,15,0.00,,,0.00,,2013-04-21 18:21:00,
2013-04-21 11:32:00,73.0,23.0,30.04,South,185,2.0,7.0,15,0.00,,,0.00,,2013-04-21 18:32:00,
2013-04-21 11:42:00,73.0,23.0,30.04,South,185,2.0,7.0,15,0.00,,,0.00,,2013-04-21 18:42:00,
2013-04-21 11:52:00,73.0,26.0,30.04,WNW,293,6.0,12.0,17,0.00,,,0.00,,2013-04-21 18:52:00,
2013-04-21 12:02:00,73.0,26.0,30.04,WNW,293,6.0,12.0,17,0.00,,,0.00,,2013-04-21 19:02:00,
2013-04-21 12:11:00,73.0,26.0,30.04,WNW,293,6.0,12.0,17,0.00,,,0.00,,2013-04-21 19:11:00,
2013-04-21 12:21:00,73.0,26.0,30.03,North,355,5.0,15.0,17,0.00,,,0.00,,2013-04-21 19:21:00,
2013-04-21 12:31:00,73.0,34.0,30.03,North,350,8.0,12.0,24,0.00,,,0.00,,2013-04-21 19:31:00,
2013-04-21 12:42:00,73.0,34.0,30.03,North,350,8.0,12.0,24,0.00,,,0.00,,2013-04-21 19:42:00,
2013-04-21 12:52:00,73.0,36.0,30.03,WSW,245,7.0,15.0,26,0.00,,,0.00,,2013-04-21 19:52:00,
2013-04-21 13:01:00,73.0,37.0,30.03,NNW,342,7.0,15.0,27,0.00,,,0.00,,2013-04-21 20:01:00,
2013-04-21 13:11:00,73.0,37.0,30.03,NNW,342,7.0,15.0,27,0.00,,,0.00,,2013-04-21 20:11:00,
2013-04-21 13:21:00,74.0,29.0,30.03,NNW,342,8.0,13.0,19,0.00,,,0.00,,2013-04-21 20:21:00,
2013-04-21 13:31:00,75.0,27.0,30.01,NW,323,6.0,13.0,17,0.00,,,0.00,,2013-04-21 20:31:00,
2013-04-21 13:41:00,75.0,27.0,30.01,NW,323,6.0,13.0,17,0.00,,,0.00,,2013-04-21 20:41:00,
2013-04-21 13:52:00,74.0,33.0,30.01,NNW,337,7.0,15.0,22,0.00,,,0.00,,2013-04-21 20:52:00,
2013-04-21 14:01:00,74.0,35.0,30.02,North,11,8.0,15.0,24,0.00,,,0.00,,2013-04-21 21:01:00,
2013-04-21 14:12:00,72.0,34.0,30.02,North,360,10.0,18.0,25,0.00,,,0.00,,2013-04-21 21:12:00,
2013-04-21 14:21:00,72.0,34.0,30.02,North,360,10.0,18.0,25,0.00,,,0.00,,2013-04-21 21:21:00,
2013-04-21 14:32:00,71.0,34.0,30.02,NNW,336,9.0,16.0,26,0.00,,,0.00,,2013-04-21 21:32:00,
2013-04-21 14:43:00,71.0,34.0,30.02,NNW,336,9.0,16.0,26,0.00,,,0.00,,2013-04-21 21:43:00,
2013-04-21 14:53:00,71.0,36.0,30.02,NNW,340,13.0,20.0,28,0.00,,,0.00,,2013-04-21 21:53:00,
2013-04-21 15:02:00,71.0,36.0,30.01,NNE,15,6.0,16.0,28,0.00,,,0.00,,2013-04-21 22:02:00,
2013-04-21 15:12:00,72.0,36.0,30.01,North,351,8.0,14.0,27,0.00,,,0.00,,2013-04-21 22:12:00,
2013-04-21 15:22:00,72.0,36.0,30.01,North,351,8.0,14.0,27,0.00,,,0.00,,2013-04-21 22:22:00,
2013-04-21 15:32:00,70.0,34.0,30.01,NW,326,9.0,21.0,26,0.00,,,0.00,,2013-04-21 22:32:00,
2013-04-21 15:42:00,70.0,34.0,30.01,NW,326,9.0,21.0,26,0.00,,,0.00,,2013-04-21 22:42:00,
2013-04-21 15:52:00,71.0,30.0,30.00,NNW,336,10.0,18.0,22,0.00,,,0.00,,2013-04-21 22:52:00,
2013-04-21 16:02:00,71.0,30.0,30.00,NNW,348,10.0,18.0,22,0.00,,,0.00,,2013-04-21 23:02:00,
2013-04-21 16:11:00,71.0,30.0,30.00,NNW,348,10.0,18.0,22,0.00,,,0.00,,2013-04-21 23:11:00,
2013-04-21 16:22:00,70.0,30.0,30.00,North,349,13.0,18.0,23,0.00,,,0.00,,2013-04-21 23:22:00,
2013-04-21 16:32:00,70.0,32.0,30.00,North,360,6.0,16.0,24,0.00,,,0.00,,2013-04-21 23:32:00,
2013-04-21 16:42:00,70.0,32.0,30.00,North,360,6.0,16.0,24,0.00,,,0.00,,2013-04-21 23:42:00,
2013-04-21 16:52:00,71.0,31.0,30.00,NNW,340,8.0,15.0,23,0.00,,,0.00,,2013-04-21 23:52:00,
2013-04-21 17:01:00,70.0,28.0,30.00,NNE,13,13.0,17.0,21,0.00,,,0.00,,2013-04-22 00:01:00,
2013-04-21 17:11:00,70.0,28.0,30.00,NNE,13,13.0,17.0,21,0.00,,,0.00,,2013-04-22 00:11:00,
2013-04-21 17:21:00,69.0,31.0,29.99,North,360,11.0,17.0,24,0.00,,,0.00,,2013-04-22 00:21:00,
2013-04-21 17:31:00,69.0,30.0,30.00,North,355,11.0,17.0,23,0.00,,,0.00,,2013-04-22 00:31:00,
2013-04-21 17:42:00,69.0,30.0,30.00,North,355,11.0,17.0,23,0.00,,,0.00,,2013-04-22 00:42:00,
2013-04-21 17:51:00,68.0,29.0,30.00,North,350,11.0,17.0,23,0.00,,,0.00,,2013-04-22 00:51:00,
2013-04-21 18:01:00,68.0,25.0,29.99,North,9,12.0,16.0,20,0.00,,,0.00,,2013-04-22 01:01:00,
2013-04-21 18:11:00,68.0,25.0,29.99,North,9,12.0,16.0,20,0.00,,,0.00,,2013-04-22 01:11:00,
2013-04-21 18:21:00,68.0,24.0,30.00,NNW,329,12.0,16.0,19,0.00,,,0.00,,2013-04-22 01:21:00,
2013-04-21 18:32:00,66.0,26.0,29.99,North,360,10.0,15.0,22,0.00,,,0.00,,2013-04-22 01:32:00,
2013-04-21 18:41:00,66.0,26.0,29.99,North,360,10.0,15.0,22,0.00,,,0.00,,2013-04-22 01:41:00,
2013-04-21 18:51:00,66.0,24.0,29.99,North,5,12.0,17.0,20,0.00,,,0.00,,2013-04-22 01:51:00,
2013-04-21 19:01:00,65.0,26.0,29.99,North,355,9.0,15.0,23,0.00,,,0.00,,2013-04-22 02:01:00,
2013-04-21 19:11:00,64.0,28.0,29.98,North,351,9.0,13.0,26,0.00,,,0.00,,2013-04-22 02:11:00,
2013-04-21 19:21:00,64.0,28.0,29.98,North,351,9.0,13.0,26,0.00,,,0.00,,2013-04-22 02:21:00,
2013-04-21 19:31:00,64.0,30.0,29.99,North,360,7.0,15.0,28,0.00,,,0.00,,2013-04-22 02:31:00,
2013-04-21 19:41:00,64.0,30.0,29.99,North,360,7.0,15.0,28,0.00,,,0.00,,2013-04-22 02:41:00,
2013-04-21 19:52:00,63.0,29.0,29.99,NNW,348,10.0,20.0,27,0.00,,,0.00,,2013-04-22 02:52:00,
2013-04-21 20:01:00,63.0,27.0,29.99,NNW,333,9.0,17.0,25,0.00,,,0.00,,2013-04-22 03:01:00,
2013-04-21 20:11:00,63.0,27.0,29.99,NNW,333,9.0,17.0,25,0.00,,,0.00,,2013-04-22 03:11:00,
2013-04-21 20:22:00,62.0,27.0,30.00,North,355,10.0,20.0,26,0.00,,,0.00,,2013-04-22 03:22:00,
2013-04-21 20:33:00,63.0,25.0,30.01,NNW,347,8.0,16.0,23,0.00,,,0.00,,2013-04-22 03:33:00,
2013-04-21 20:42:00,63.0,25.0,30.01,NNW,347,8.0,16.0,23,0.00,,,0.00,,2013-04-22 03:42:00,
2013-04-21 20:52:00,62.0,25.0,30.01,NNW,340,7.0,18.0,24,0.00,,,0.00,,2013-04-22 03:52:00,
2013-04-21 21:02:00,62.0,26.0,30.01,North,350,8.0,14.0,25,0.00,,,0.00,,2013-04-22 04:02:00,
2013-04-21 21:12:00,62.0,26.0,30.01,North,350,8.0,14.0,25,0.00,,,0.00,,2013-04-22 04:12:00,
2013-04-21 21:23:00,62.0,27.0,30.01,North,360,11.0,19.0,26,0.00,,,0.00,,2013-04-22 04:23:00,
2013-04-21 21:32:00,63.0,29.0,30.01,North,350,11.0,22.0,28,0.00,,,0.00,,2013-04-22 04:32:00,
2013-04-21 21:43:00,63.0,29.0,30.01,North,350,11.0,22.0,28,0.00,,,0.00,,2013-04-22 04:43:00,
2013-04-21 21:52:00,63.0,29.0,30.01,North,360,10.0,22.0,27,0.00,,,0.00,,2013-04-22 04:52:00,
2013-04-21 22:02:00,63.0,26.0,30.01,North,349,11.0,24.0,24,0.00,,,0.00,,2013-04-22 05:02:00,
2013-04-21 22:11:00,62.0,29.0,30.01,North,350,17.0,27.0,29,0.00,,,0.00,,2013-04-22 05:11:00,
2013-04-21 22:22:00,62.0,29.0,30.01,North,350,17.0,27.0,29,0.00,,,0.00,,2013-04-22 05:22:00,
2013-04-21 22:32:00,62.0,33.0,30.00,North,355,18.0,29.0,33,0.00,,,0.00,,2013-04-22 05:32:00,
2013-04-21 22:42:00,62.0,33.0,30.00,North,355,18.0,29.0,33,0.00,,,0.00,,2013-04-22 05:42:00,
2013-04-21 22:52:00,62.0,32.0,30.00,North,5,17.0,29.0,32,0.00,,,0.00,,2013-04-22 05:52:00,
2013-04-21 23:02:00,61.0,30.0,29.99,North,355,22.0,37.0,31,0.00,,,0.00,,2013-04-22 06:02:00,
2013-04-21 23:11:00,61.0,30.0,29.99,North,355,22.0,37.0,31,0.00,,,0.00,,2013-04-22 06:11:00,
2013-04-21 23:21:00,62.0,23.0,29.99,North,360,23.0,33.0,22,0.00,,,0.00,,2013-04-22 06:21:00,
2013-04-21 23:32:00,63.0,11.0,29.98,North,5,22.0,34.0,13,0.00,,,0.00,,2013-04-22 06:32:00,
2013-04-21 23:52:00,63.0,1.0,29.98,North,11,22.0,35.0,8,0.00,,,0.00,,2013-04-22 06:52:00,